ATLAS 5 CENTAUR R/B, 40731

Orbit data source: Space-Track

ATLAS 5 CENTAUR R/B, 40731 is space debris in MEO originally from a launch on Wed, 15 Jul 2015 UTC launched from the Air Force Eastern Test Range (AFETR). Debris objects in space refer to the collection of defunct objects orbiting the Earth. Examples of debris include non-operational satellites, rocket bodies, and fragments generated from explosions, collisions, or faulty payload assembly.

Loading next visibility...
ATLAS 5 CENTAUR R/B details
Identifier
40731, 2015-033B
Orbit
MEO
Last TLE update23 hours ago
Origin
Flag of USULA (US)
ManufacturerLMSS Denver
MissionSpacecraft
Bus & MotorCENTAUR SEC, RL10C-1
Mass~2,020 kg wet, 2,020 kg dry
Launch date (UTC)
2015-07-15 (9 years ago)
Launch vehicleUnknown
Launch site
Air Force Eastern Test Range (AFETR)
Object type
Payload
Rocket body
Debris
Shape & HBRCyl + 1 Nozzle, 11.7 m
Radar Cross Section32.260 m², Large (>1 m²)

Expand to show TLE details & history

TLE from 23 hours ago
0 ATLAS 5 CENTAUR R/B
1 40731U 15033B   24339.45052679 -.00000036  00000-0  00000-0 0  9996
2 40731  55.0733 304.5080 0228548 358.6721   1.2566  1.90866816 65467
Epoch: 2024-12-04T10:48Z
Definitive object data (Epoch: 2024-12-04T10:48:45.514Z)
Latitude-0.00001°
Longitude68.55155°
Altitude20,448 km
Speed3.899 km/s
True Right ascension20h 17m 56s
True Declination0° 00' 00"
Sunlit
Object was in daylight at TLE epoch
Visualization TLE readout
Latitude-41.01422°
Longitude31.19174°
Altitude20,690.89 km
Speed3.865 km/s
Apparent Right ascension18h 14m 50s
Apparent Declination-41° 33' 49"
Sunlit
Object is in daylight
Visualization observer readout
Local Sidereal Time08:09:04
Azimuth103.696° ESE
Elevation-68.397°
Doppler factor1
Orbital elements
Apogee altitude21,701.766 km
Perigee altitude20,446.924 km
Semi-major axis27,452.482 km
Eccentricity0.0228548
Inclination55.0733°
RAAN304.508°
Arg. of periapsis358.6721°
True anomaly1.31572°
Mean anomaly1.2566°
Eccentric anomaly1.28599°
Mean motion0.47717 °/min
BSTARUnknown
Orbital period754.45 mins
Loading maneuver chart data...
Loading historical data...
Loading historical data...
Loading historical data...
Loading historical data...
Loading historical data...
Loading historical data...
Loading historical data...
Other satellites on launch #33 in the year 2015 (2015-07-15 UTC)

ATLAS 5 CENTAUR R/B Visibility forecast

Observer location: undefined°, undefined

Span
Click to sort rows by Start time (UTC) header in descending order
Start Az.
Max El. time (UTC)
Max El. Az.
Max El.
End time (UTC)
End Az.
438 mins2024-12-05 23:49:43.393Z217.522° SW2024-12-06 02:58:43.393Z333.443° NNW43.685°2024-12-06 07:07:43.393Z121.821° SE
|